Regional Weather Roundup
Issued by NWS Midland/Odessa, TX

Skip options and go directly to product.
Home | Oldest Version | Previous Version | Current Version | All | Graphics & Text | Save Text | Print | Product List | Glossary On

Skip product version selection by date and time.   
761
ASUS44 KMAF 182310
RWRMAF
MIDLAND AREA WEATHER ROUNDUP
NATIONAL WEATHER SERVICE MIDLAND TX
600 PM CDT FRI APR 18 2014

...IN SOUTHWEST TEXAS AND SOUTHEAST NEW MEXICO...

CITY           SKY/WX    TMP DP  RH WIND       PRES   REMARKS
ALPINE         SUNNY     76  43  31 SE14G22   30.13F
ANDREWS        FAIR      74  46  36 SE17G23   30.08F
ARTESIA        PTSUNNY   73  45  35 SE22      30.04F
BIG SPRING     CLOUDY    74  44  34 E10G16    30.11F
CARLSBAD       MOSUNNY   78  44  29 SE15G23   30.02F
DRYDEN           N/A     78  51  38 E22       30.05F
FORT STOCKTON  SUNNY     76  49  38 SE21G26   30.05F
GUAD PASS      MOSUNNY   68  41  37 E20G26    30.12F
HOBBS          SUNNY     72  41  33 SE23      30.09F
MARFA          SUNNY     75  39  27 SE12G21   30.11F
MIDLAND AIRPK  CLOUDY    77  43  29 SE13G20   30.08F
MIDLAND INTL   PTSUNNY   76  46  34 SE14G24   30.07F
ODESSA         PTSUNNY   76  45  33 SE17G24   30.07F
PECOS          SUNNY     80  45  29 E21G26    30.02F
PRESIDIO       FAIR      86  44  22 E12       29.95F
SEMINOLE       CLOUDY    72  44  37 S16       30.10F
SNYDER         PTSUNNY   72  46  39 SE8       30.11F
WINK           MOSUNNY   79  47  32 SE20G26   30.03F
$$
...OTHER STATIONS IN TEXAS...

CITY           SKY/WX    TMP DP  RH WIND       PRES   REMARKS
ABILENE        MOSUNNY   73  46  38 SE6       30.12F
AMARILLO       SUNNY     74  42  31 S24       30.06F
AUSTIN         MOSUNNY   76  53  44 NE3       30.10F
BROWNSVILLE    MOSUNNY   75  60  59 NE10      30.10S
CORPUS CHRISTI PTSUNNY   78  56  46 E15       30.08F
DALLAS FTW     MOSUNNY   76  46  34 E5        30.11F
DEL RIO        MOSUNNY   80  51  36 SE14      30.05F
EL PASO        CLOUDY    82  32  16 SE12      29.95F
HOUSTON INT    MOSUNNY   78  53  41 NE10      30.07F
LUBBOCK        CLOUDY    70  44  39 S16       30.09F
SAN ANGELO     CLOUDY    77  46  33 E8        30.07F
SAN ANTONIO    PTSUNNY   76  55  48 E15       30.10S
WACO           PTSUNNY   72  52  49 E6        30.12F
WICHITA FALLS  NOT AVBL
$$
...OTHER LOCATIONS IN NEW MEXICO...

CITY           SKY/WX    TMP DP  RH WIND       PRES   REMARKS
ALAMAGORDO     PTSUNNY   79  30  17 S21G29    30.00F
ALBUQUERQUE    PTSUNNY   78  22  12 S16G24    30.00F
CANNON AFB     NOT AVBL
CLOVIS         CLOUDY    68  45  42 S16G25    30.11F
HOLLOMAN AFB   PTSUNNY   80  33  18 SE22G28   29.98F
ROSWELL        CLOUDY    72  46  39 S18G29    30.04F
RUIDOSO        PTSUNNY   64  39  39 SE18G25   30.16S
SANTA FE       CLOUDY    72  18  13 SW8       30.05F
TRUTH OR CONSE PTSUNNY   77  28  16 S20G25    30.00F
TUCUMCARI      PTSUNNY   76  36  23 S29G37    29.99F
$$

USA.gov is the U.S. government's official web portal to all federal, state and local government web resources and services.